Regional Weather Roundup
Issued by NWS

Home | Current Version | Previous Version | Graphics & Text | Print | Product List | Glossary On
Versions: 1 2 3 4 5 6 7 8 9 10 11 12 13 14 15 16 17 18 19 20 21 22 23 24 25 26 27
000
ASUS45 KBOU 260507
RWRCO

WEATHER ROUNDUP FOR COLORADO
NATIONAL WEATHER SERVICE DENVER/BOULDER CO
1000 PM MST SAT FEB 25 2017

NOTE: "FAIR" INDICATES FEW OR NO CLOUDS BELOW 12000 FEET WITH NO
SIGNIFICANT WEATHER AND/OR OBSTRUCTIONS TO VISIBILITY.

COZ001>005-013-030-031-260600-
...NORTHWEST COLORADO...

CITY           SKY/WX    TMP DP  RH WIND       PRES   REMARKS
CRAIG          CLOUDY    16  10  77 CALM      29.89R
HAYDEN         MOCLDY    16  10  79 W8        29.86S WCI   5
MEEKER         FAIR      11   7  84 E3        29.89R
MOUNT WERNER   NOT AVBL
STEAMBOAT SPGS CLOUDY    16  10  78 W5        29.85R WCI   8
WALDEN         NOT AVBL
$$

COZ006>008-011-260600-
...WEST CENTRAL VALLEYS...

CITY           SKY/WX    TMP DP  RH WIND       PRES   REMARKS
GRAND JUNCTION CLOUDY    32  11  41 W3        29.92R
MONTROSE       CLOUDY    29   8  41 NW8       29.94R WCI  21
EAGLE          PTCLDY    21  12  68 SW10      29.88R WCI  10
RIFLE          FAIR      27  13  55 W3        29.91R
DELTA          CLOUDY    34  14  43 W16G24    29.92S WCI  23
NUCLA          CLOUDY    30   7  37 NW6       29.94S WCI  24
$$

COZ017>023-064>068-260600-
...SOUTHWEST COLORADO...

CITY           SKY/WX    TMP DP  RH WIND       PRES   REMARKS
DURANGO        FAIR      28   9  44 SW7       29.86F WCI  21
CORTEZ         FAIR      29  15  56 CALM      29.88F
PAGOSA SPRINGS CLOUDY    28  10  46 W13       29.85F WCI  17
TELLURIDE      MOCLDY    18   6  58 CALM      29.85F
WOLF CREEK PAS CLOUDY     5   3  92 SW20G29   29.79S FOG     WCI -15
$$

COZ009-010-012-014-032>034-037-058>063-260600-
...CENTRAL COLORADO...

CITY           SKY/WX    TMP DP  RH WIND       PRES   REMARKS
ASPEN          CLOUDY    17  11  77 N8        29.81S WCI   7
BUENA VISTA    CLOUDY    21   5  49 NW6       29.78S WCI  13
COPPER MTN     CLOUDY     5  -4  66 MISG      29.64R
BERTHOUD PASS  HVY SNOW  -6 -15  65 MISG      29.53S VSB 1/4
COTTONWOOD PAS CLOUDY    16   3  57 CALM      29.72S
GUNNISON       FLURRIES  17  13  84 NE3       29.85R
KREMMLING      LGT SNOW  21  18  86 NE3       29.84R
LEADVILLE      LGT SNOW   7   1  76 NW8       29.72S WCI  -6
MONARCH PASS   SNOW       3  -2  78 W29G41    29.75S VSB 1/2 WCI -21
SALIDA         CLOUDY    24   6  44 W10G16    29.88S WCI  14
SUNLIGHT       NOT AVBL
WILKERSON PASS CLOUDY     3   0  85 SW16G22   29.68F WCI -16
$$

COZ069>075-260600-
...SAN LUIS VALLEY/SANGRE DE CRISTO MOUNTAINS...

CITY           SKY/WX    TMP DP  RH WIND       PRES   REMARKS
ALAMOSA        MOCLDY    26  11  52 SW12      29.81S WCI  16
LA VETA PASS   CLOUDY    16   5  62 SW28G44   29.72F WCI  -4
SAGUACHE       CLOUDY    21   9  58 NW12      29.82S WCI   9
$$

COZ035-036-038>040-260600-
...NORTHERN COLORADO FRONT RANGE...

CITY           SKY/WX    TMP DP  RH WIND       PRES   REMARKS
DENVER INTL AP FAIR      25   6  44 W6        29.78S WCI  18
DMNS CITY PARK   N/A     30   3  31 E8        29.78F WCI  22
AURORA         PTCLDY    23   4  44 S6        29.78S WCI  15
FRONT RANGE AP NOT AVBL
ERIE MUNI ARPT FAIR      25   8  49 CALM      29.77F
BOULDER MUN AP MOCLDY    28  12  50 N6        29.76F WCI  22
CENTENNIAL     FAIR      21   4  47 SW7       29.77S WCI  12
BROOMFIELD     PTCLDY    27   5  39 W5        29.77F WCI  21
FORT COLLINS   FAIR      21  10  62 E10       29.78F WCI  10
LONGMONT       FAIR      32   7  34 S9G21     29.78F WCI  24
$$

COZ041-046-047-076>085-087-088-260600-
...PIKES PEAK/PALMER DIVIDE AND SOUTHERN FOOTHILLS...

CITY           SKY/WX    TMP DP  RH WIND       PRES   REMARKS
COLO. SPRINGS  FAIR      23  -5  29 W7        29.81S WCI  15
A. F. ACADEMY  FAIR      17  -1  44 N3        29.78F
SCHRIEVER AFB  FAIR      19  -7  30 W9        29.81S WCI   8
ELLICOTT       NOT AVBL
FALCON         FAIR      22  -2  34 W10       29.78F WCI  11
FORT CARSON    FAIR      29  -1  27 W12       29.80S WCI  19
LIMON          FAIR       9   4  80 N3        29.81R
MONUMENT HILL  FAIR      18   1  49 SW7       29.77S WCI   8
TRINIDAD       FAIR      29   2  31 E3        29.81S
$$

COZ042>045-048>051-090-091-260600-
...NORTHEAST COLORADO...

CITY           SKY/WX    TMP DP  RH WIND       PRES   REMARKS
GREELEY ARPT   FAIR      19  13  77 NE7       29.81S WCI  10
AKRON          FAIR      22  14  71 E3        29.82S
BURLINGTON     FAIR      21   7  54 CALM      29.84S
WRAY           NOT AVBL
STERLING       FAIR      21  18  86 SW6       29.82S WCI  14
HOLYOKE        FAIR      28  21  74 SW10      29.84S WCI  19
FORT MORGAN    FAIR      20  15  78 NE6       29.83S WCI  13
$$

COZ086-089-092>099-260600-
...SOUTHEAST COLORADO...

CITY           SKY/WX    TMP DP  RH WIND       PRES   REMARKS
PUEBLO         FAIR      36   1  22 NW18      29.81S
LA JUNTA       FAIR      33   3  28 N10       29.83R WCI  25
LAMAR          MOCLDY    29   4  34 NE9       29.82R WCI  20
SPRINGFIELD      N/A     27   3  35 NW9       29.80R WCI  18
$$




USA.gov is the U.S. government's official web portal to all federal, state and local government web resources and services.